Ozark, AL

4:46 AM CDT on September 21, 2017 (GMT -0500)
Cairns Army Air Field

Weather History for KOZR - January, 2012

Change the Weather History Date:

Sunday, January 1, 2012

  Actual Average Record
Temperature  
Mean Temperature 62 °F -  
Max Temperature 73 °F 59 °F 75 °F (2013)
Min Temperature 50 °F 38 °F 24 °F (1998)
Degree Days  
Heating Degree Days 2    
Growing Degree Days 12 (Base 50)    
Moisture  
Dew Point 58 °F    
Average Humidity 89    
Maximum Humidity 100    
Minimum Humidity 46    
Precipitation  
Precipitation 0.01 in - - ()
Sea Level Pressure  
Sea Level Pressure 30.20 in    
Wind  
Wind Speed 8 mph (SW)    
Max Wind Speed 18 mph    
Max Gust Speed 26 mph    
Visibility 5 miles    
Events Fog    
Averages and records for this station are not official NWS values.
T = Trace of Precipitation, MM = Missing Value Source: NWS Daily Summary

Daily Weather History Graph

Daily Weather History Graph

Search for Another Location

Airport or City:

Trip Planner

Search our weather history database for the weather conditions in past years. The results will help you decide how hot, cold, wet, or windy it might be!

Date:

Astronomy

Jan. 01, 2012 Rise Set
Actual Time 6:41 AM CST 4:51 PM CST
Civil Twilight 6:14 AM CST 5:17 PM CST
Nautical Twilight 5:44 AM CST 5:47 PM CST
Astronomical Twilight 5:15 AM CST 6:17 PM CST
Moon 11:26 AM CST (1/1) No Moon Set
Length of Visible Light 11h 02m
Length of Day
10h 09m
First Quarter, 55% of the Moon is Illuminated
Jan 1
First Quarter
Jan 9
Full
Jan 16
Last Quarter
Jan 23
New
Jan 30
First Quarter

Hourly Weather History & Observations

Time (CST) Temp. Dew Point Humidity Pressure Visibility Wind Dir Wind Speed Gust Speed Precip Events Conditions
12:55 AM 55.6 °F 55.0 °F 98% 30.17 in 0.2 mi SW 9.2 mph - N/A Fog Fog
1:55 AM 56.1 °F 55.8 °F 99% 30.17 in 0.2 mi SW 6.9 mph - N/A Fog Fog
2:19 AM 57.2 °F 55.4 °F 94% 30.17 in 0.2 mi SW 4.6 mph - N/A Fog Fog
2:20 AM 57.2 °F 55.4 °F 94% 30.17 in 0.2 mi SW 4.6 mph - N/A Fog Fog
2:24 AM 57.2 °F 55.4 °F 94% 30.17 in 0.2 mi SW 6.9 mph - N/A Fog Fog
2:26 AM 57.2 °F 57.2 °F 100% 30.17 in 0.2 mi SW 5.8 mph - N/A Fog Fog
2:32 AM 57.2 °F 57.2 °F 100% 30.17 in 0.2 mi WSW 4.6 mph - N/A Fog Fog
2:38 AM 57.2 °F 57.2 °F 100% 30.17 in 0.2 mi SW 8.1 mph - N/A Fog Fog
2:53 AM 57.2 °F 57.2 °F 100% 30.17 in 0.2 mi SW 5.8 mph - N/A Fog Fog
2:55 AM 56.8 °F 56.5 °F 99% 30.17 in 0.2 mi SW 5.8 mph - N/A Fog Fog
2:57 AM 57.2 °F 57.2 °F 100% 30.17 in 0.2 mi WSW 5.8 mph - N/A Fog Fog
3:09 AM 57.2 °F 57.2 °F 100% 30.17 in 0.2 mi WSW 4.6 mph - N/A Fog Fog
3:35 AM 57.2 °F 57.2 °F 100% 30.17 in 0.2 mi SSW 5.8 mph - N/A Fog Fog
3:55 AM 57.6 °F 57.2 °F 99% 30.17 in 0.2 mi SW 4.6 mph - N/A Fog Fog
4:55 AM 58.3 °F 57.9 °F 99% 30.18 in 0.2 mi SW 3.5 mph - N/A Fog Fog
5:55 AM 58.6 °F 58.3 °F 99% 30.20 in 0.2 mi Calm Calm - N/A Fog Fog
6:55 AM 59.5 °F 59.4 °F 99% 30.21 in 0.2 mi SSW 6.9 mph - N/A Fog Fog
7:06 AM 60.8 °F 59.0 °F 94% 30.21 in 0.2 mi SSW 8.1 mph - N/A Fog Fog
7:17 AM 60.8 °F 60.8 °F 100% 30.21 in 0.2 mi SSW 8.1 mph - N/A Fog Fog
7:55 AM 61.2 °F 60.8 °F 99% 30.23 in 0.2 mi SW 8.1 mph - N/A Fog Fog
7:56 AM 60.8 °F 60.8 °F 100% 30.23 in 0.5 mi SW 9.2 mph - N/A Fog Fog
8:26 AM 62.6 °F 60.8 °F 94% 30.24 in 0.2 mi SSW 5.8 mph - N/A Fog Fog
8:32 AM 62.6 °F 60.8 °F 94% 30.24 in 0.5 mi SSW 6.9 mph - N/A Fog Fog
8:40 AM 62.6 °F 60.8 °F 94% 30.24 in 0.8 mi SSW 8.1 mph - N/A   Mist
8:45 AM 62.6 °F 62.6 °F 100% 30.23 in 1.0 mi SSW 10.4 mph - N/A   Mist
8:48 AM 62.6 °F 62.6 °F 100% 30.24 in 1.2 mi SSW 9.2 mph - N/A   Overcast
8:50 AM 62.6 °F 62.6 °F 100% 30.24 in 1.5 mi SSW 10.4 mph - N/A   Overcast
8:53 AM 62.6 °F 62.6 °F 100% 30.24 in 2.0 mi SSW 9.2 mph - N/A   Overcast
8:55 AM 62.4 °F 62.1 °F 99% 30.24 in 3.0 mi SSW 10.4 mph - N/A   Overcast
9:25 AM 62.6 °F 62.6 °F 100% 30.24 in 9.0 mi SSW 10.4 mph - N/A   Overcast
9:35 AM 64.4 °F 64.4 °F 100% 30.23 in 10.0 mi South 11.5 mph - N/A   Overcast
9:51 AM 64.4 °F 64.4 °F 100% 30.22 in 10.0 mi SSW 11.5 mph - N/A   Mostly Cloudy
9:55 AM 64.8 °F 64.4 °F 99% 30.22 in 10.0 mi SSW 12.7 mph - N/A   Mostly Cloudy
10:07 AM 64.4 °F 64.4 °F 100% 30.22 in 10.0 mi SW 12.7 mph - N/A   Mostly Cloudy
10:19 AM 66.2 °F 64.4 °F 94% 30.22 in 10.0 mi SW 12.7 mph - N/A   Mostly Cloudy
10:31 AM 66.2 °F 66.2 °F 100% 30.20 in 10.0 mi SSW 11.5 mph - N/A   Mostly Cloudy
10:33 AM 66.2 °F 66.2 °F 100% 30.20 in 10.0 mi SW 12.7 mph - N/A   Mostly Cloudy
10:45 AM 68.0 °F 66.2 °F 94% 30.19 in 10.0 mi SW 13.8 mph - N/A   Scattered Clouds
10:55 AM 67.8 °F 66.9 °F 97% 30.19 in 10.0 mi WSW 12.7 mph - 0.01 in   Scattered Clouds
12:55 PM 73.8 °F 60.1 °F 62% 30.13 in 10.0 mi WSW 11.5 mph - N/A   Mostly Cloudy
1:55 PM 72.7 °F 60.6 °F 66% 30.12 in 10.0 mi West 11.5 mph - N/A   Scattered Clouds
2:55 PM 73.6 °F 60.4 °F 63% 30.11 in 10.0 mi WSW 11.5 mph - N/A   Clear
3:55 PM 72.9 °F 60.4 °F 65% 30.10 in 10.0 mi WSW 5.8 mph - N/A   Partly Cloudy
4:55 PM 69.8 °F 60.3 °F 72% 30.12 in 10.0 mi WNW 5.8 mph - N/A   Partly Cloudy
5:55 PM 67.3 °F 55.6 °F 66% 30.15 in 10.0 mi NW 11.5 mph - N/A   Clear
6:55 PM 64.2 °F 44.4 °F 49% 30.18 in 10.0 mi NW 18.4 mph 26.5 mph N/A   Partly Cloudy
7:55 PM 59.9 °F 38.8 °F 46% 30.22 in 10.0 mi NW 17.3 mph - N/A   Clear
8:55 PM 57.4 °F 37.8 °F 48% 30.24 in 10.0 mi NW 13.8 mph - N/A   Clear
9:55 PM 54.9 °F 36.7 °F 50% 30.25 in 10.0 mi NW 10.4 mph - N/A   Clear
10:55 PM 52.7 °F 34.7 °F 50% 30.25 in 10.0 mi NW 11.5 mph - N/A   Clear
11:55 PM 50.9 °F 33.8 °F 52% 30.25 in 10.0 mi NNW 12.7 mph - N/A   Clear